Location: Kawakawa
(35.3830°S, 174.0670°E)
Time: 03:25:42
(UTC+12:00)

CENTAUR R/B - Pass Details

Date: 15 August 2020
Orbit: 754 x 1434 km, 63.5° (Epoch: 17 September)

Event Time Altitude Azimuth Distance (km) Brightness Sun altitude
Rises 18:08:01 0° 214° (SW) 3,459 5.7 -4.0°
Reaches altitude 10° 18:10:37 10° 216° (SW) 2,444 4.9 -4.5°
Maximum altitude 18:16:06 69° 298° (WNW) 829 2.5 -5.6°
Drops below altitude 10° 18:21:11 10° 21° (NNE) 2,277 4.4 -6.6°
Sets 18:23:32 0° 23° (NNE) 3,202 5.1 -7.1°
